CZ-6A DEB, 61436

Orbit data source: Space-Track

CZ-6A DEB, 61436 is space debris in LEO originally from a launch on Tue, 06 Aug 2024 UTC launched from the Taiyaun Space Center, China (TSC). Debris objects in space refer to the collection of defunct objects orbiting the Earth. Examples of debris include non-operational satellites, rocket bodies, and fragments generated from explosions, collisions, or faulty payload assembly.

Loading next visibility...
Identifier
61436, 2024-140ZD
Orbit
LEO
Country
Flag of CNCN / PRC
Related business
Manufacturer
SAST
Mission
Spacecraft
Bus & Motor
Unknown
Mass
Unknown
Launch date (UTC)
2024-08-06 (1 year ago)
Launch vehicle
Unknown
Launch site
Taiyaun Space Center, China (TSC)
Object type
Payload
Rocket body
Debris
Shape & HBR
Unknown shape, 0.1 m
Radar Cross Section
Small (<0.1 m²)

Expand to show TLE details & history
Last TLE update: 9 hours ago

TLE from 9 hours ago
0 CZ-6A DEB
1 61436U 24140ZD  25346.87064365  .00002578  00000-0  12208-2 0  9997
2 61436  88.9408 292.4923 0060027  66.0342 294.7117 14.18414460 67733
Epoch: 2025-12-12T20:53Z
TLE epoch observation values (Epoch: 2025-12-12T20:53:43.611Z)
Latitude
-0°
Longitude
-102.74547°
Altitude
815.892 km
Speed
7.454 km/s
True Right ascension
19h 29m 58s
True Declination
0° 00' 00"
Sunlit
Object was in daylight at epoch
Visualization orbit readout
Latitude
Unknown
Longitude
Unknown
Altitude
Unknown
Speed
Unknown
Apparent Right ascension
Unknown
Apparent Declination
Unknown
Sunlit
N/A
Visualization observer readout
Local Sidereal Time
04:16:15
Azimuth
Unknown
Elevation
Unknown
Doppler factor
Unknown
Orbital elements
Apogee altitude
870.928 km
Perigee altitude
784.419 km
Semi-major axis
7,205.811 km
Eccentricity
0.006
Inclination
88.9408°
RAAN
292.4923°
Arg. of periapsis
66.0342°
True anomaly
294.08488°
Mean anomaly
294.7117°
Eccentric anomaly
294.39849°
Mean motion
3.54829 °/min
Orbital period
101.46 mins
BSTAR
0.0012208
Loading maneuver chart data...
Computing Atmospheric mass density...
Loading historical data...
Loading historical data...
Loading historical data...
Loading historical data...
Loading historical data...
Loading historical data...
Loading historical data...

Documentation

Showing up to 5 results
|